| time (UTC) | temp F | wind direction | speed MPH | gust MPH | rain 1hr in | rain 24hr in | rain mn in | humidity % | barometer mb |
| 20260505123035 | 64 | 37 | 0.0 | 0.0 | 0.00 | 0.00 | 0.00 | 93 | 1007.3 |
| 20260505123004 | 64 | 67 | 0.0 | 0.0 | 0.00 | 0.00 | 0.00 | 93 | 1007.3 |
| 20260505121538 | 64 | 37 | 0.0 | 0.0 | 0.00 | 0.00 | 0.00 | 92 | 1007.0 |
| 20260505121506 | 64 | 67 | 0.0 | 0.0 | 0.00 | 0.00 | 0.00 | 91 | 1007.0 |
| 20260505120033 | 64 | 37 | 0.0 | 0.0 | 0.00 | 0.00 | 0.00 | 90 | 1007.0 |
| 20260505120004 | 64 | 67 | 0.0 | 0.0 | 0.00 | 0.00 | 0.00 | 90 | 1006.9 |
| 20260505114533 | 65 | 46 | 0.0 | 1.0 | 0.00 | 0.00 | 0.00 | 89 | 1006.7 |
| 20260505114504 | 65 | 78 | 0.0 | 1.0 | 0.00 | 0.00 | 0.00 | 89 | 1006.5 |
| 20260505113033 | 65 | 60 | 0.0 | 1.0 | 0.00 | 0.00 | 0.00 | 87 | 1006.4 |
| 20260505113004 | 65 | 92 | 0.0 | 1.0 | 0.00 | 0.00 | 0.00 | 87 | 1006.2 |
| 20260505111530 | 66 | 51 | 0.0 | 2.0 | 0.00 | 0.00 | 0.00 | 85 | 1006.3 |
| 20260505111505 | 66 | 81 | 0.0 | 2.0 | 0.00 | 0.00 | 0.00 | 85 | 1006.1 |
| 20260505101531 | 66 | 138 | 0.0 | 1.0 | 0.00 | 0.00 | 0.00 | 82 | 1006.0 |
| 20260505101507 | 66 | 85 | 0.0 | 1.0 | 0.00 | 0.00 | 0.00 | 82 | 1005.8 |
| 20260505100056 | 66 | 89 | 0.0 | 1.0 | 0.00 | 0.00 | 0.00 | 82 | 1006.0 |
| 20260505100008 | 66 | 164 | 0.0 | 1.0 | 0.00 | 0.00 | 0.00 | 81 | 1005.9 |
| 20260505094623 | 67 | 12 | 0.0 | 1.0 | 0.00 | 0.00 | 0.00 | 81 | 1006.3 |
| 20260505094510 | 67 | 43 | 0.0 | 1.0 | 0.00 | 0.00 | 0.00 | 81 | 1006.0 |
| 20260505093058 | 67 | 64 | 0.0 | 3.0 | 0.00 | 0.00 | 0.00 | 80 | 1006.0 |
| 20260505093012 | 67 | 100 | 0.0 | 3.0 | 0.00 | 0.00 | 0.00 | 79 | 1005.7 |
| 20260505091604 | 67 | 55 | 0.0 | 0.0 | 0.00 | 0.00 | 0.00 | 79 | 1006.1 |
| 20260505091508 | 67 | 88 | 0.0 | 0.0 | 0.00 | 0.00 | 0.00 | 79 | 1005.9 |
| 20260505090058 | 67 | 20 | 0.0 | 1.0 | 0.00 | 0.00 | 0.00 | 80 | 1006.0 |
| 20260505090010 | 67 | 81 | 0.0 | 2.0 | 0.00 | 0.00 | 0.00 | 79 | 1005.8 |
| 20260505084555 | 67 | 23 | 0.0 | 1.0 | 0.00 | 0.00 | 0.00 | 79 | 1006.2 |
| 20260505084508 | 67 | 54 | 0.0 | 3.0 | 0.00 | 0.00 | 0.00 | 78 | 1005.9 |
| 20260505083058 | 67 | 129 | 0.0 | 2.0 | 0.00 | 0.00 | 0.00 | 78 | 1006.3 |
| 20260505083012 | 67 | 77 | 0.0 | 2.0 | 0.00 | 0.00 | 0.00 | 77 | 1006.1 |
| 20260505081556 | 67 | 72 | 0.0 | 0.0 | 0.00 | 0.00 | 0.00 | 77 | 1006.8 |
| 20260505081518 | 67 | 102 | 0.0 | 1.0 | 0.00 | 0.00 | 0.00 | 76 | 1006.6 |
| 20260505080050 | 67 | 51 | 0.0 | 1.0 | 0.00 | 0.00 | 0.00 | 76 | 1007.0 |
| 20260505080014 | 67 | 85 | 0.0 | 1.0 | 0.00 | 0.00 | 0.00 | 75 | 1006.8 |
| 20260505074545 | 67 | 56 | 0.0 | 1.0 | 0.00 | 0.00 | 0.00 | 76 | 1007.2 |
| 20260505074513 | 67 | 97 | 0.0 | 1.0 | 0.00 | 0.00 | 0.00 | 75 | 1007.1 |
| 20260505073044 | 67 | 40 | 0.0 | 1.0 | 0.00 | 0.00 | 0.00 | 75 | 1007.1 |
| 20260505073015 | 67 | 69 | 0.0 | 1.0 | 0.00 | 0.00 | 0.00 | 74 | 1007.0 |
| 20260505071547 | 67 | 212 | 0.0 | 2.0 | 0.00 | 0.00 | 0.00 | 73 | 1007.5 |
| 20260505071514 | 67 | 242 | 0.0 | 2.0 | 0.00 | 0.00 | 0.00 | 73 | 1007.2 |
| 20260505070040 | 67 | 100 | 0.0 | 2.0 | 0.00 | 0.00 | 0.00 | 74 | 1007.7 |
| 20260505070015 | 67 | 82 | 0.0 | 2.0 | 0.00 | 0.00 | 0.00 | 74 | 1007.4 |
| 20260505064540 | 67 | 74 | 0.0 | 1.0 | 0.00 | 0.00 | 0.00 | 74 | 1007.6 |
| 20260505064514 | 67 | 119 | 0.0 | 3.0 | 0.00 | 0.00 | 0.00 | 73 | 1007.4 |
| 20260505063034 | 66 | 119 | 0.0 | 2.0 | 0.00 | 0.00 | 0.00 | 74 | 1007.9 |
| 20260505063015 | 66 | 93 | 0.0 | 1.0 | 0.00 | 0.00 | 0.00 | 74 | 1007.7 |
| 20260505061533 | 65 | 36 | 0.0 | 0.0 | 0.00 | 0.00 | 0.00 | 75 | 1007.9 |
| 20260505061515 | 65 | 66 | 0.0 | 0.0 | 0.00 | 0.00 | 0.00 | 75 | 1007.8 |
| 20260505060035 | 65 | 49 | 0.0 | 0.0 | 0.00 | 0.00 | 0.00 | 74 | 1008.1 |
| 20260505060017 | 65 | 78 | 0.0 | 0.0 | 0.00 | 0.00 | 0.00 | 74 | 1007.8 |
| 20260505054535 | 64 | 79 | 0.0 | 0.0 | 0.00 | 0.00 | 0.00 | 74 | 1008.2 |
| 20260505054527 | 64 | 49 | 0.0 | 0.0 | 0.00 | 0.00 | 0.00 | 75 | 1008.5 |
| 20260505053026 | 64 | 49 | 0.0 | 0.0 | 0.00 | 0.00 | 0.00 | 75 | 1008.6 |
| 20260505053016 | 64 | 80 | 0.0 | 0.0 | 0.00 | 0.00 | 0.00 | 75 | 1008.2 |
| 20260505051524 | 64 | 49 | 0.0 | 0.0 | 0.00 | 0.00 | 0.00 | 75 | 1008.6 |
| 20260505051517 | 64 | 79 | 0.0 | 0.0 | 0.00 | 0.00 | 0.00 | 74 | 1008.2 |
| 20260505041521 | 66 | 79 | 0.0 | 0.0 | 0.00 | 0.00 | 0.00 | 71 | 1008.6 |
| 20260505041519 | 66 | 49 | 0.0 | 0.0 | 0.00 | 0.00 | 0.00 | 71 | 1009.0 |
| 20260505040022 | 66 | 49 | 0.0 | 0.0 | 0.00 | 0.00 | 0.00 | 71 | 1009.2 |
| 20260505034527 | 67 | 79 | 0.0 | 0.0 | 0.00 | 0.00 | 0.00 | 69 | 1008.8 |
| 20260505034518 | 67 | 50 | 0.0 | 0.0 | 0.00 | 0.00 | 0.00 | 69 | 1009.1 |
| 20260505033029 | 67 | 50 | 0.0 | 0.0 | 0.00 | 0.00 | 0.00 | 69 | 1009.4 |
| 20260505033020 | 67 | 79 | 0.0 | 0.0 | 0.00 | 0.00 | 0.00 | 68 | 1008.9 |
| 20260505031517 | 67 | 49 | 0.0 | 0.0 | 0.00 | 0.00 | 0.00 | 69 | 1009.4 |
| 20260505030118 | 68 | 49 | 0.0 | 0.0 | 0.00 | 0.00 | 0.00 | 70 | 1009.1 |
| 20260505030037 | 68 | 79 | 0.0 | 0.0 | 0.00 | 0.00 | 0.00 | 69 | 1008.8 |
| 20260505024521 | 68 | 78 | 0.0 | 0.0 | 0.00 | 0.00 | 0.00 | 69 | 1008.7 |
| 20260505024516 | 68 | 49 | 0.0 | 0.0 | 0.00 | 0.00 | 0.00 | 69 | 1009.0 |
| 20260505023020 | 68 | 78 | 0.0 | 0.0 | 0.00 | 0.00 | 0.00 | 69 | 1008.5 |
| 20260505023018 | 68 | 48 | 0.0 | 0.0 | 0.00 | 0.00 | 0.00 | 69 | 1008.7 |
| 20260505021525 | 68 | 79 | 0.0 | 0.0 | 0.00 | 0.00 | 0.00 | 69 | 1008.3 |
| 20260505021516 | 68 | 48 | 0.0 | 0.0 | 0.00 | 0.00 | 0.00 | 69 | 1008.7 |
| 20260505020021 | 69 | 79 | 0.0 | 0.0 | 0.00 | 0.00 | 0.00 | 68 | 1008.1 |
| 20260505020018 | 69 | 48 | 0.0 | 0.0 | 0.00 | 0.00 | 0.00 | 68 | 1008.3 |
| 20260505014524 | 69 | 48 | 0.0 | 0.0 | 0.00 | 0.00 | 0.00 | 67 | 1008.2 |
| 20260505013020 | 70 | 78 | 0.0 | 0.0 | 0.00 | 0.00 | 0.00 | 65 | 1007.9 |
| 20260505013013 | 70 | 48 | 0.0 | 0.0 | 0.00 | 0.00 | 0.00 | 66 | 1008.2 |
| 20260505011512 | 71 | 48 | 0.0 | 0.0 | 0.00 | 0.00 | 0.00 | 64 | 1007.8 |
| 20260505010012 | 72 | 78 | 0.0 | 0.0 | 0.00 | 0.00 | 0.00 | 62 | 1007.6 |
| 20260505004515 | 73 | 48 | 0.0 | 0.0 | 0.00 | 0.00 | 0.00 | 61 | 1008.0 |
| 20260505003026 | 74 | 79 | 0.0 | 0.0 | 0.00 | 0.00 | 0.00 | 57 | 1007.7 |
| 20260505003007 | 74 | 49 | 0.0 | 0.0 | 0.00 | 0.00 | 0.00 | 58 | 1007.9 |
| 20260505001525 | 75 | 48 | 0.0 | 0.0 | 0.00 | 0.00 | 0.00 | 57 | 1007.9 |
| 20260505001522 | 75 | 78 | 0.0 | 0.0 | 0.00 | 0.00 | 0.00 | 56 | 1007.8 |
| 20260505000022 | 75 | 81 | 0.0 | 1.0 | 0.00 | 0.00 | 0.00 | 56 | 1007.9 |
| 20260505000019 | 75 | 51 | 0.0 | 1.0 | 0.00 | 0.00 | 0.00 | 56 | 1008.1 |
| 20260504234602 | 76 | 33 | 0.0 | 1.0 | 0.00 | 0.00 | 0.00 | 56 | 1008.2 |
| 20260504234520 | 76 | 62 | 0.0 | 1.0 | 0.00 | 0.00 | 0.00 | 55 | 1008.0 |
| 20260504233105 | 76 | 29 | 0.0 | 1.0 | 0.00 | 0.00 | 0.00 | 55 | 1008.3 |
| 20260504233020 | 76 | 59 | 0.0 | 1.0 | 0.00 | 0.00 | 0.00 | 54 | 1008.0 |
| 20260504231601 | 76 | 14 | 0.0 | 1.0 | 0.00 | 0.00 | 0.00 | 53 | 1008.4 |
| 20260504231507 | 76 | 97 | 0.0 | 1.0 | 0.00 | 0.00 | 0.00 | 52 | 1008.2 |
| 20260504230111 | 77 | 180 | 0.0 | 1.0 | 0.00 | 0.00 | 0.00 | 54 | 1008.6 |
| 20260504230025 | 77 | 76 | 0.0 | 0.0 | 0.00 | 0.00 | 0.00 | 52 | 1008.5 |
| 20260504224546 | 77 | 51 | 0.0 | 1.0 | 0.00 | 0.00 | 0.00 | 53 | 1008.8 |
| 20260504224529 | 77 | 76 | 0.0 | 1.0 | 0.00 | 0.00 | 0.00 | 51 | 1008.6 |
| 20260504223039 | 77 | 47 | 0.0 | 4.0 | 0.00 | 0.00 | 0.00 | 51 | 1008.8 |
| 20260504223022 | 77 | 76 | 0.0 | 4.0 | 0.00 | 0.00 | 0.00 | 52 | 1008.8 |
| 20260504221539 | 77 | 48 | 0.0 | 3.0 | 0.00 | 0.00 | 0.00 | 52 | 1008.9 |
| 20260504221517 | 77 | 117 | 0.0 | 3.0 | 0.00 | 0.00 | 0.00 | 51 | 1008.8 |
| 20260504220037 | 77 | 60 | 0.0 | 3.0 | 0.00 | 0.00 | 0.00 | 50 | 1009.2 |
| 20260504220016 | 78 | 95 | 0.0 | 3.0 | 0.00 | 0.00 | 0.00 | 50 | 1009.0 |
| 20260504214535 | 78 | 358 | 0.0 | 2.0 | 0.00 | 0.00 | 0.00 | 50 | 1009.2 |
| 20260504214510 | 78 | 40 | 0.0 | 1.0 | 0.00 | 0.00 | 0.00 | 49 | 1009.3 |
| 20260504213036 | 78 | 31 | 0.0 | 3.0 | 0.00 | 0.00 | 0.00 | 50 | 1009.5 |
| 20260504213033 | 78 | 123 | 0.0 | 3.0 | 0.00 | 0.00 | 0.00 | 52 | 1009.4 |
| 20260504211534 | 79 | 32 | 0.0 | 6.0 | 0.00 | 0.00 | 0.00 | 49 | 1009.5 |
| 20260504211532 | 79 | 67 | 0.0 | 6.0 | 0.00 | 0.00 | 0.00 | 49 | 1009.5 |
| 20260504210036 | 79 | 29 | 0.0 | 3.0 | 0.00 | 0.00 | 0.00 | 47 | 1010.0 |
| 20260504210022 | 79 | 305 | 0.0 | 3.0 | 0.00 | 0.00 | 0.00 | 48 | 1009.9 |
| 20260504204532 | 79 | 341 | 0.0 | 4.0 | 0.00 | 0.00 | 0.00 | 49 | 1010.3 |
| 20260504204521 | 79 | 28 | 0.0 | 4.0 | 0.00 | 0.00 | 0.00 | 49 | 1010.1 |
| 20260504203026 | 78 | 357 | 0.0 | 6.0 | 0.00 | 0.00 | 0.00 | 48 | 1010.4 |
| 20260504203021 | 78 | 5 | 0.0 | 6.0 | 0.00 | 0.00 | 0.00 | 47 | 1010.2 |
| 20260504201529 | 78 | 197 | 1.0 | 5.0 | 0.00 | 0.00 | 0.00 | 48 | 1010.5 |
| 20260504201523 | 78 | 167 | 1.0 | 5.0 | 0.00 | 0.00 | 0.00 | 48 | 1010.7 |
| 20260504200028 | 79 | 87 | 0.0 | 2.0 | 0.00 | 0.00 | 0.00 | 45 | 1010.8 |
| 20260504200022 | 79 | 58 | 0.0 | 2.0 | 0.00 | 0.00 | 0.00 | 46 | 1010.9 |
| 20260504194526 | 78 | 136 | 0.0 | 3.0 | 0.00 | 0.00 | 0.00 | 49 | 1011.0 |
| 20260504194521 | 78 | 112 | 0.0 | 3.0 | 0.00 | 0.00 | 0.00 | 48 | 1011.4 |
| 20260504193026 | 78 | 145 | 0.0 | 5.0 | 0.00 | 0.00 | 0.00 | 48 | 1011.2 |
| 20260504193020 | 78 | 57 | 0.0 | 5.0 | 0.00 | 0.00 | 0.00 | 49 | 1011.5 |
| 20260504191525 | 78 | 103 | 1.0 | 5.0 | 0.00 | 0.00 | 0.00 | 49 | 1011.4 |
| 20260504191518 | 78 | 71 | 1.0 | 5.0 | 0.00 | 0.00 | 0.00 | 50 | 1011.7 |
| 20260504190021 | 78 | 48 | 0.0 | 4.0 | 0.00 | 0.00 | 0.00 | 49 | 1011.5 |
| 20260504190014 | 78 | 19 | 0.0 | 4.0 | 0.00 | 0.00 | 0.00 | 50 | 1012.0 |
| 20260504184540 | 77 | 244 | 1.0 | 5.0 | 0.00 | 0.00 | 0.00 | 47 | 1011.7 |
| 20260504184512 | 77 | 213 | 0.0 | 5.0 | 0.00 | 0.00 | 0.00 | 48 | 1012.1 |
| 20260504183026 | 76 | 42 | 0.0 | 3.0 | 0.00 | 0.00 | 0.00 | 51 | 1012.0 |
| 20260504183010 | 76 | 22 | 0.0 | 3.0 | 0.00 | 0.00 | 0.00 | 51 | 1012.3 |
| 20260504181526 | 75 | 340 | 1.0 | 7.0 | 0.00 | 0.00 | 0.00 | 51 | 1012.1 |
| 20260504181507 | 75 | 300 | 1.0 | 7.0 | 0.00 | 0.00 | 0.00 | 51 | 1012.4 |
| 20260504180032 | 75 | 181 | 0.0 | 4.0 | 0.00 | 0.00 | 0.00 | 53 | 1012.3 |
| 20260504180003 | 75 | 162 | 0.0 | 3.0 | 0.00 | 0.00 | 0.00 | 53 | 1012.4 |
| 20260504174600 | 74 | 106 | 0.0 | 7.0 | 0.00 | 0.00 | 0.00 | 52 | 1012.8 |
| 20260504174522 | 74 | 79 | 0.0 | 7.0 | 0.00 | 0.00 | 0.00 | 51 | 1012.4 |
| 20260504173108 | 73 | 19 | 0.0 | 4.0 | 0.00 | 0.00 | 0.00 | 56 | 1012.9 |
| 20260504173023 | 73 | 145 | 0.0 | 4.0 | 0.00 | 0.00 | 0.00 | 55 | 1012.5 |
| 20260504171602 | 73 | 8 | 0.0 | 9.0 | 0.00 | 0.00 | 0.00 | 54 | 1013.2 |
| 20260504171526 | 73 | 74 | 0.0 | 9.0 | 0.00 | 0.00 | 0.00 | 51 | 1012.7 |